Location: Ab? ar R?sh Ba?r?
(24.1861°N, 32.8847°E)
Time: 17:37:34
(UTC+00:00)

deb r/b Ablestar - Visible Passes

Search period start: 11 August 2022 00:00
Search period end: 21 August 2022 00:00
Orbit: 856 x 935 km, 66.8° (Epoch: 11 August)

Date Brightness Start Highest point End Pass type
(mag) Time Alt. Az. Time Alt. Az. Time Alt. Az.
11 Aug ? 17:08:48 10° N 17:14:04 30° ENE 17:18:00 16° ESE visible
11 Aug ? 18:54:31 10° NW 18:59:38 29° WSW 19:00:59 27° SW visible
12 Aug ? 17:09:36 10° N 17:15:16 41° ENE 17:19:48 16° SE visible
12 Aug ? 18:56:16 10° WNW 19:00:40 21° WSW 19:02:48 18° SW visible
13 Aug ? 17:10:31 10° NNW 17:16:27 56° ENE 17:21:43 14° SE visible
13 Aug ? 18:58:27 10° WNW 19:01:40 15° WSW 19:04:43 11° SW visible
14 Aug ? 17:11:31 10° NNW 17:17:35 77° ENE 17:23:43 10° SSE visible
15 Aug ? 17:12:39 10° NNW 17:18:43 79° WSW 17:24:50 10° SSE visible
16 Aug ? 17:13:53 10° NNW 17:19:48 58° WSW 17:25:48 10° S visible
17 Aug ? 17:15:14 10° NW 17:20:53 42° WSW 17:26:36 10° S visible
18 Aug ? 17:16:44 10° NW 17:21:56 30° WSW 17:27:11 10° SSW visible
19 Aug ? 17:18:27 10° WNW 17:22:58 22° WSW 17:27:31 10° SSW visible
20 Aug ? 17:20:34 10° WNW 17:23:59 16° WSW 17:27:26 10° SW visible
